User: anonymous   Login
Location: Unspecified
(0.0000°N, 0.0000°E)
Time: 23:19:29
(UTC+00:00)
Language:

FORMOSAT 3E - Orbit

View from above orbital plane
View from above orbital plane
View from above satellite
View from above satellite

Ground track
Ground track

The orbit data is extracted from the following two-line orbital elements,

1 29051U 06011E   17141.63558657 +.00000051 +00000-0 +35633-4 0  9994
2 29051 072.0062 222.9709 0066882 065.7127 295.0975 14.28587580581824
Epoch (UTC): 21 May 2017 15:15:14
Eccentricity: 0.0066882
inclination: 72.0062°
perigee height: 748 km
apogee height: 844 km
right ascension of ascending node: 222.9709°
argument of perigee: 65.7127°
revolutions per day: 14.28587580
mean anomaly at epoch: 295.0975°
orbit number at epoch: 58182

The dashed part of the orbit path shows where the satellite is in the earth's shadow,  

DLR